Location: B�hl
(48.6968°N, 8.1352°E)
Time: 23:12:10
(UTC+00:00)

SL-8 Rocket - Pass Details

Date: 08 March 2021
Orbit: 957 x 991 km, 82.9° (Epoch: 14 April)

Event Time Altitude Azimuth Distance (km) Brightness Sun altitude
Rises 18:25:20 0° 180° (S) 3,660 7.0 -11.2°
Reaches altitude 10° 18:27:51 10° 179° (S) 2,712 6.3 -11.6°
Maximum altitude 18:34:02 74° 95° (E) 1,011 3.9 -12.6°
Drops below altitude 10° 18:40:12 10° 12° (NNE) 2,709 6.3 -13.7°
Sets 18:42:43 0° 11° (N) 3,657 7.0 -14.1°
